Mason City, IA

7:28 AM CDT on July 28, 2017 (GMT -0500)
Mason City Municipal

Weather History for KMCW - September, 2013

Change the Weather History Date:

Thursday, September 19, 2013

  Actual Average Record
Temperature  
Mean Temperature 72 °F 60 °F  
Max Temperature 83 °F 72 °F 95 °F (1948)
Min Temperature 61 °F 47 °F 25 °F (1894)
Degree Days  
Heating Degree Days 0 7  
Month to date heating degree days 58 78  
Since 1 July heating degree days 96 114  
Cooling Degree Days 7 1  
Month to date cooling degree days 108 44  
Year to date cooling degree days 700 600  
Growing Degree Days 22 (Base 50)    
Moisture  
Dew Point 66 °F    
Average Humidity 76    
Maximum Humidity 93    
Minimum Humidity 58    
Precipitation  
Precipitation 0.08 in 0.11 in 4.57 in (1983)
Month to date precipitation 0.81 2.12  
Year to date precipitation 34.16 28.48  
Snow  
Snow 0.00 in 0.00 in 0.00 in (2002)
Month to date snowfall 0.0 0.0  
Since 1 July snowfall 0.0 0.0  
Since 1 September snowfall 0.0 0.0  
Snow Depth 0.00 in    
Sea Level Pressure  
Sea Level Pressure 29.75 in    
Wind  
Wind Speed 11 mph (SW)    
Max Wind Speed 23 mph    
Max Gust Speed 31 mph    
Visibility 10 miles    
Events Rain    
T = Trace of Precipitation, MM = Missing Value Source: NWS Daily Summary

Daily Weather History Graph

Daily Weather History Graph

Search for Another Location

Airport or City:

Trip Planner

Search our weather history database for the weather conditions in past years. The results will help you decide how hot, cold, wet, or windy it might be!

Date:

Astronomy

Sep. 19, 2013 Rise Set
Actual Time 6:57 AM CDT 7:15 PM CDT
Civil Twilight 6:29 AM CDT 7:44 PM CDT
Nautical Twilight 5:55 AM CDT 8:17 PM CDT
Astronomical Twilight 5:21 AM CDT 8:51 PM CDT
Moon 7:11 PM CDT (9/19) 7:08 AM CDT (9/19)
Length of Visible Light 13h 14m
Length of Day
12h 18m
Full, 100% of the Moon is Illuminated
Sep 19
Full
Sep 26
Last Quarter
Oct 4
New
Oct 11
First Quarter
Oct 18
Full

Hourly Weather History & Observations

Time (CDT) Temp. Heat Index Dew Point Humidity Pressure Visibility Wind Dir Wind Speed Gust Speed Precip Events Conditions
12:53 AM 73.0 °F - 69.1 °F 87% 29.75 in 10.0 mi South 11.5 mph - N/A   Scattered Clouds
1:53 AM 73.0 °F - 69.1 °F 87% 29.74 in 10.0 mi South 12.7 mph - N/A   Clear
2:53 AM 72.0 °F - 69.1 °F 91% 29.73 in 8.0 mi South 10.4 mph - N/A   Partly Cloudy
3:53 AM 72.0 °F - 69.1 °F 91% 29.72 in 9.0 mi South 11.5 mph - N/A   Clear
4:53 AM 72.0 °F - 69.1 °F 91% 29.70 in 9.0 mi South 11.5 mph - N/A   Clear
5:53 AM 72.0 °F - 69.1 °F 91% 29.70 in 10.0 mi South 10.4 mph - N/A   Mostly Cloudy
6:53 AM 71.1 °F - 68.0 °F 90% 29.72 in 10.0 mi South 9.2 mph - N/A   Mostly Cloudy
7:53 AM 71.1 °F - 68.0 °F 90% 29.71 in 9.0 mi South 9.2 mph - N/A   Clear
8:53 AM 73.9 °F - 69.1 °F 85% 29.70 in 10.0 mi South 12.7 mph - N/A   Clear
9:53 AM 78.1 °F - 69.1 °F 74% 29.70 in 10.0 mi South 17.3 mph 23.0 mph N/A   Clear
10:53 AM 78.1 °F - 66.9 °F 68% 29.76 in 10.0 mi SW 12.7 mph 20.7 mph N/A   Scattered Clouds
11:53 AM 78.1 °F - 66.0 °F 66% 29.74 in 10.0 mi WSW 9.2 mph - N/A   Clear
12:53 PM 81.0 °F 83.3 °F 66.9 °F 62% 29.74 in 10.0 mi WSW 9.2 mph - N/A   Clear
1:53 PM 80.1 °F 82.3 °F 66.9 °F 64% 29.78 in 10.0 mi WSW 21.9 mph 31.1 mph 0.00 in Rain Light Rain
2:53 PM 80.1 °F 81.9 °F 64.9 °F 60% 29.72 in 10.0 mi Variable 5.8 mph - 0.00 in   Partly Cloudy
3:53 PM 81.0 °F 82.7 °F 64.9 °F 58% 29.71 in 10.0 mi West 11.5 mph - N/A   Clear
4:53 PM 73.9 °F - 64.9 °F 73% 29.75 in 10.0 mi West 18.4 mph - N/A   Clear
5:53 PM 70.0 °F - 64.9 °F 84% 29.78 in 9.0 mi WNW 9.2 mph - 0.01 in Rain Light Rain
6:53 PM 68.0 °F - 66.0 °F 93% 29.78 in 5.0 mi West 4.6 mph - 0.05 in Rain Light Rain
7:53 PM 66.9 °F - 64.9 °F 93% 29.78 in 10.0 mi NW 4.6 mph - 0.01 in   Partly Cloudy
8:53 PM 66.9 °F - 64.9 °F 93% 29.78 in 10.0 mi NW 10.4 mph - 0.01 in   Mostly Cloudy
9:53 PM 64.9 °F - 63.0 °F 93% 29.82 in 10.0 mi WNW 5.8 mph - N/A   Overcast
10:53 PM 64.0 °F - 62.1 °F 93% 29.83 in 10.0 mi WNW 6.9 mph - N/A   Mostly Cloudy
11:53 PM 64.0 °F - 57.0 °F 78% 29.83 in 10.0 mi WNW 10.4 mph - N/A   Overcast